Regional Weather Roundup
Issued by NWS Newport/Morehead, NC

Current Version | Previous Version | Graphics & Text | Print | Product List | Glossary On
Versions: 1 2 3 4 5 6 7 8 9 10 11 12 13 14 15 16 17 18 19 20 21 22 23 24 25 26 27 28 29 30 31 32 33 34 35 36 37 38 39 40 41 42 43 44 45 46 47 48 49 50
000 ASUS42 KMHX 281212 RWRMHX WEATHER ROUNDUP FOR EASTERN NORTH CAROLINA NATIONAL WEATHER SERVICE NEWPORT/MOREHEAD CITY NC 700 AM EST SAT FEB 28 2015 NOTE: "FAIR" INDICATES FEW OR NO CLOUDS BELOW 12,000 FEET WITH NO SIGNIFICANT WEATHER AND/OR OBSTRUCTIONS TO VISIBILITY NCZ015>017-031-032-045>047-102-103-281300- NORTH COAST CITY SKY/WX TMP DP RH WIND PRES REMARKS EDENTON CLEAR 27 17 65 NE8G18 30.73R ELIZABETH CITY CLEAR 27 17 66 N15 30.74R WCI 15 KITTY HAWK SUNNY 31 21 66 N12G20 30.70R MANTEO CLEAR 30 21 69 N15G25 30.71R WCI 19 $$ NCZ045>047-081-094-103-104-281300- CENTRAL COAST CITY SKY/WX TMP DP RH WIND PRES REMARKS FRISCO PTCLDY 34 27 75 NE12G25 30.65R SWANQUARTER N/A 30 N/A N/A NE8G21 30.65R $$ NCZ095-097-098-100-101-281300- SOUTHERN COAST CITY SKY/WX TMP DP RH WIND PRES REMARKS BEAUFORT PTCLDY 32 24 72 NE14G23 30.66R CEDAR ISLAND N/A 32 N/A N/A N14G30 30.71R JACKSONVILLE PTCLDY 30 24 78 NE9 30.67R PINEY ISLAND N/A N/A N/A N/A MISG 30.66R WILMINGTON PTCLDY 30 27 88 NE12 30.64R FOG $$ NCZ011>013-027>030-043-044-078>080-089-090>093-098-281300- COASTAL PLAIN CITY SKY/WX TMP DP RH WIND PRES REMARKS AHOSKIE CLEAR 24 13 65 N8 30.76R CLINTON CLEAR 30 23 75 NE8 30.69R ELIZABETHTOWN PTCLDY 29 27 92 N6 30.66R FOG GOLDSBORO CLEAR 28 25 88 NE9 30.69R GREENVILLE CLEAR 28 18 64 NE14 30.70R WCI 17 HAVELOCK PTCLDY 31 23 72 NE14 30.68R KENANSVILLE PTCLDY 28 21 73 NE6 30.69R KINSTON CLEAR 28 19 69 NE13 30.71R WCI 18 NEW BERN PTCLDY 29 23 78 NE13 30.70R WCI 19 RICHLANDS PTCLDY 28 21 74 N12 30.68R WCI 18 ROCKY MOUNT CLEAR 26 19 74 NE9 30.73R WASHINGTON CLEAR 28 17 64 NE12 30.71R WCI 17 WHITEVILLE PTCLDY 31 27 86 NE8 30.64R FOG $$ AMZ130-135-150-152-154-156-158-170-250-252-270-ANZ085-086-088-633-658-670-281300- MARINE OBSERVATIONS STATION/POSITION TIME TEMP WIND PRES WAVE SWELL AIR SEA DIR/SP/G HT/PER HT/PER (UTC) (F) (DEG/KT/KT) (MB) (FT/S) (FT/S) CHESAPEAKE LIGHT 1100 26 10/ 18/ 20 1040.9 64 E VA BEACH 1150 37 57 10/ 19/ 25 1038.9 7/11 5/11 DUCK 1100 31 35 20/ 20/ 24 1038.2 2 E DUCK 1111 35 N/A 7/ 6 2/11 10 NE DUCK 1052 36 N/A 7/ 6 2/11 OREGON INLET 1100 33 38 360/ 14/ 22 1038.5 HATTERAS CG 1100 35 40 10/ 25/ 29 1037.2 CAPE LOOKOUT 1200 33 20/ 19/ 24 1037.3 BEAUFORT LAB 1100 33 41 20/ 13/ 18 1036.2 27 SE WRIGHTSVLE NOT AVBL 5 SE WRIGHTSVLE NOT AVBL 225 S CAPE HAT 1150 66 70 60/ 19/ 23 1029.6 10/ 8 5/10 41 SE CHARLESTON 1150 54 65 50/ 25/ 31 1031.5 8/ 7 2/10 $$

USA.gov is the U.S. government's official web portal to all federal, state and local government web resources and services.